Data supplied by UK-AIR on 24/3/2017
All Data GMT hour ending 
Status: R =Ratified P=Provisional,P*=As supplied
,,Yarner Wood,,,,,,,,,,,,,,,,,,,,,,,
Date,time,"Nitric oxide",status,unit,"Nitrogen dioxide",status,unit,"Nitrogen oxides as nitrogen dioxide",status,unit,"Ozone",status,unit
 
01-01-2016,01:00,0.52927,R,ugm-3,1.15260,R,ugm-3,1.96414,R,ugm-3,49.22727,R,ugm-3
01-01-2016,02:00,0.62573,R,ugm-3,0.85935,R,ugm-3,1.81879,R,ugm-3,46.83243,R,ugm-3
01-01-2016,03:00,0.36109,R,ugm-3,0.91991,R,ugm-3,1.47358,R,ugm-3,47.84691,R,ugm-3
01-01-2016,04:00,0.50516,R,ugm-3,0.80803,R,ugm-3,1.58259,R,ugm-3,44.65379,R,ugm-3
01-01-2016,05:00,0.46930,R,ugm-3,0.75400,R,ugm-3,1.47358,R,ugm-3,45.45207,R,ugm-3
01-01-2016,06:00,0.46899,R,ugm-3,1.08152,R,ugm-3,1.80062,R,ugm-3,48.74497,R,ugm-3
01-01-2016,07:00,0.61367,R,ugm-3,3.31436,R,ugm-3,4.25531,R,ugm-3,53.18541,R,ugm-3
01-01-2016,08:00,0.57750,R,ugm-3,4.40544,R,ugm-3,5.29093,R,ugm-3,56.12906,R,ugm-3
01-01-2016,09:00,0.50516,R,ugm-3,2.28018,R,ugm-3,3.05474,R,ugm-3,64.26154,R,ugm-3
01-01-2016,10:00,0.39695,R,ugm-3,2.66411,R,ugm-3,3.27277,R,ugm-3,70.54800,R,ugm-3
01-01-2016,11:00,0.32523,R,ugm-3,2.93808,R,ugm-3,3.43676,R,ugm-3,69.74972,R,ugm-3
01-01-2016,12:00,0.50516,R,ugm-3,3.15371,R,ugm-3,3.92828,R,ugm-3,68.20305,R,ugm-3
01-01-2016,13:00,0.39727,R,ugm-3,3.75519,R,ugm-3,4.36433,R,ugm-3,66.40692,R,ugm-3
01-01-2016,14:00,0.43281,R,ugm-3,2.77360,R,ugm-3,3.43724,R,ugm-3,69.60004,R,ugm-3
01-01-2016,15:00,0.43313,R,ugm-3,2.17260,R,ugm-3,2.83672,R,ugm-3,71.29638,R,ugm-3
01-01-2016,16:00,0.32492,R,ugm-3,3.32106,R,ugm-3,3.81926,R,ugm-3,72.04477,R,ugm-3
01-01-2016,17:00,0.32523,R,ugm-3,3.04805,R,ugm-3,3.54673,R,ugm-3,72.79316,R,ugm-3
01-01-2016,18:00,0.14469,R,ugm-3,1.85130,R,ugm-3,2.07315,R,ugm-3,74.24004,R,ugm-3
01-01-2016,19:00,0.43313,R,ugm-3,2.50012,R,ugm-3,3.16423,R,ugm-3,71.74542,R,ugm-3
01-01-2016,20:00,0.39695,R,ugm-3,3.10160,R,ugm-3,3.71025,R,ugm-3,69.00133,R,ugm-3
01-01-2016,21:00,0.36109,R,ugm-3,2.93856,R,ugm-3,3.49223,R,ugm-3,65.25939,R,ugm-3
01-01-2016,22:00,0.28906,R,ugm-3,3.86660,R,ugm-3,4.30982,R,ugm-3,61.81681,R,ugm-3
01-01-2016,23:00,0.32492,R,ugm-3,2.39302,R,ugm-3,2.89122,R,ugm-3,66.20735,R,ugm-3
01-01-2016,24:00,0.25289,R,ugm-3,1.24934,R,ugm-3,1.63710,R,ugm-3,71.14671,R,ugm-3
02-01-2016,01:00,0.43406,R,ugm-3,0.93521,R,ugm-3,1.60076,R,ugm-3,76.03617,R,ugm-3
02-01-2016,02:00,0.48229,R,ugm-3,1.15196,R,ugm-3,1.89146,R,ugm-3,77.30011,R,ugm-3
02-01-2016,03:00,0.36172,R,ugm-3,1.84556,R,ugm-3,2.40019,R,ugm-3,76.03617,R,ugm-3
02-01-2016,04:00,0.43406,R,ugm-3,1.57112,R,ugm-3,2.23667,R,ugm-3,75.88649,R,ugm-3
02-01-2016,05:00,0.32555,R,ugm-3,1.51948,R,ugm-3,2.01864,R,ugm-3,78.13166,R,ugm-3
02-01-2016,06:00,0.47023,R,ugm-3,1.46115,R,ugm-3,2.18216,R,ugm-3,78.03187,R,ugm-3
02-01-2016,07:00,0.32555,R,ugm-3,2.82907,R,ugm-3,3.32823,R,ugm-3,73.69122,R,ugm-3
02-01-2016,08:00,0.36172,R,ugm-3,2.55510,R,ugm-3,3.10973,R,ugm-3,62.41552,R,ugm-3
02-01-2016,09:00,0.47023,R,ugm-3,1.78819,R,ugm-3,2.50920,R,ugm-3,57.47616,R,ugm-3
02-01-2016,10:00,0.36172,R,ugm-3,1.57303,R,ugm-3,2.12766,R,ugm-3,62.86455,R,ugm-3
02-01-2016,11:00,0.18086,R,ugm-3,1.90485,R,ugm-3,2.18216,R,ugm-3,67.30498,R,ugm-3
02-01-2016,12:00,0.50640,R,ugm-3,2.16925,R,ugm-3,2.94573,R,ugm-3,69.20090,R,ugm-3
02-01-2016,13:00,0.32555,R,ugm-3,2.39158,R,ugm-3,2.89074,R,ugm-3,68.20305,R,ugm-3
02-01-2016,14:00,0.43406,R,ugm-3,2.82668,R,ugm-3,3.49223,R,ugm-3,68.65208,R,ugm-3
02-01-2016,15:00,0.43406,R,ugm-3,2.71766,R,ugm-3,3.38321,R,ugm-3,66.95574,R,ugm-3
02-01-2016,16:00,0.36172,R,ugm-3,2.39063,R,ugm-3,2.94525,R,ugm-3,60.61939,R,ugm-3
02-01-2016,17:00,0.39789,R,ugm-3,2.44465,R,ugm-3,3.05474,R,ugm-3,60.51960,R,ugm-3
02-01-2016,18:00,0.61492,R,ugm-3,1.34831,R,ugm-3,2.29118,R,ugm-3,66.80606,R,ugm-3
02-01-2016,19:00,0.36172,R,ugm-3,1.13698,R,ugm-3,1.69161,R,ugm-3,69.10111,R,ugm-3
02-01-2016,20:00,0.57875,R,ugm-3,0.96773,R,ugm-3,1.85513,R,ugm-3,70.49810,R,ugm-3
02-01-2016,21:00,0.68695,R,ugm-3,0.52928,R,ugm-3,1.58259,R,ugm-3,71.59574,R,ugm-3
02-01-2016,22:00,0.68726,R,ugm-3,0.63782,R,ugm-3,1.69161,R,ugm-3,76.23574,R,ugm-3
02-01-2016,23:00,0.61492,R,ugm-3,0.53072,R,ugm-3,1.47358,R,ugm-3,75.13811,R,ugm-3
02-01-2016,24:00,0.47023,R,ugm-3,0.80708,R,ugm-3,1.52809,R,ugm-3,73.29208,R,ugm-3
03-01-2016,01:00,0.28937,R,ugm-3,0.71974,R,ugm-3,1.16344,R,ugm-3,74.50613,R,ugm-3
03-01-2016,02:00,0.57833,R,ugm-3,2.09546,R,ugm-3,2.98223,R,ugm-3,74.90527,R,ugm-3
03-01-2016,03:00,0.65109,R,ugm-3,3.42051,R,ugm-3,4.41883,R,ugm-3,70.49810,R,ugm-3
03-01-2016,04:00,0.39789,R,ugm-3,2.88214,R,ugm-3,3.49223,R,ugm-3,62.86455,R,ugm-3
03-01-2016,05:00,0.54258,R,ugm-3,2.33182,R,ugm-3,3.16375,R,ugm-3,61.91659,R,ugm-3
03-01-2016,06:00,0.43406,R,ugm-3,1.57112,R,ugm-3,2.23667,R,ugm-3,75.38757,R,ugm-3
03-01-2016,07:00,0.36172,R,ugm-3,1.90007,R,ugm-3,2.45469,R,ugm-3,77.68262,R,ugm-3
03-01-2016,08:00,0.36172,R,ugm-3,1.68204,R,ugm-3,2.23667,R,ugm-3,78.68047,R,ugm-3
03-01-2016,09:00,0.43406,R,ugm-3,1.95266,R,ugm-3,2.61821,R,ugm-3,77.58284,R,ugm-3
03-01-2016,10:00,0.47023,R,ugm-3,1.13411,R,ugm-3,1.85513,R,ugm-3,81.12521,R,ugm-3
03-01-2016,11:00,0.61492,R,ugm-3,1.18479,R,ugm-3,2.12766,R,ugm-3,83.81940,R,ugm-3
03-01-2016,12:00,0.57875,R,ugm-3,1.89433,R,ugm-3,2.78173,R,ugm-3,79.52865,R,ugm-3
03-01-2016,13:00,0.36172,R,ugm-3,2.39110,R,ugm-3,2.94573,R,ugm-3,76.38542,R,ugm-3
03-01-2016,14:00,0.50640,R,ugm-3,2.33277,R,ugm-3,3.10925,R,ugm-3,75.78671,R,ugm-3
03-01-2016,15:00,0.47023,R,ugm-3,2.06072,R,ugm-3,2.78173,R,ugm-3,74.83875,R,ugm-3
03-01-2016,16:00,0.39789,R,ugm-3,2.00813,R,ugm-3,2.61821,R,ugm-3,72.39402,R,ugm-3
03-01-2016,17:00,0.54258,R,ugm-3,1.62276,R,ugm-3,2.45469,R,ugm-3,70.99703,R,ugm-3
03-01-2016,18:00,0.36172,R,ugm-3,1.62754,R,ugm-3,2.18216,R,ugm-3,70.64778,R,ugm-3
03-01-2016,19:00,0.50640,R,ugm-3,1.29668,R,ugm-3,2.07315,R,ugm-3,73.04262,R,ugm-3
03-01-2016,20:00,0.50640,R,ugm-3,1.13316,R,ugm-3,1.90963,R,ugm-3,73.49165,R,ugm-3
03-01-2016,21:00,0.43406,R,ugm-3,0.64403,R,ugm-3,1.30958,R,ugm-3,73.99058,R,ugm-3
03-01-2016,22:00,0.57875,R,ugm-3,0.47621,R,ugm-3,1.36361,R,ugm-3,76.68477,R,ugm-3
03-01-2016,23:00,0.43406,R,ugm-3,0.58905,R,ugm-3,1.25460,R,ugm-3,74.43961,R,ugm-3
03-01-2016,24:00,0.32555,R,ugm-3,0.59192,R,ugm-3,1.09108,R,ugm-3,75.93639,R,ugm-3
04-01-2016,01:00,0.24115,R,ugm-3,0.72229,R,ugm-3,1.09204,R,ugm-3,75.43746,R,ugm-3
04-01-2016,02:00,0.48229,R,ugm-3,0.64324,R,ugm-3,1.38274,R,ugm-3,75.10484,R,ugm-3
04-01-2016,03:00,0.57875,R,ugm-3,1.07865,R,ugm-3,1.96605,R,ugm-3,75.58714,R,ugm-3
04-01-2016,04:00,0.39789,R,ugm-3,1.24695,R,ugm-3,1.85704,R,ugm-3,78.13166,R,ugm-3
04-01-2016,05:00,0.43406,R,ugm-3,0.91752,R,ugm-3,1.58307,R,ugm-3,80.37682,R,ugm-3
04-01-2016,06:00,0.47023,R,ugm-3,0.80803,R,ugm-3,1.52904,R,ugm-3,80.02757,R,ugm-3
04-01-2016,07:00,0.50640,R,ugm-3,0.69711,R,ugm-3,1.47358,R,ugm-3,80.02757,R,ugm-3
04-01-2016,08:00,0.39789,R,ugm-3,0.86349,R,ugm-3,1.47358,R,ugm-3,75.73682,R,ugm-3
04-01-2016,09:00,0.47023,R,ugm-3,1.24504,R,ugm-3,1.96605,R,ugm-3,75.23789,R,ugm-3
04-01-2016,10:00,0.57875,R,ugm-3,2.11618,R,ugm-3,3.00358,R,ugm-3,71.44606,R,ugm-3
04-01-2016,11:00,0.43406,R,ugm-3,2.44704,R,ugm-3,3.11259,R,ugm-3,75.88649,R,ugm-3
04-01-2016,12:00,0.43406,R,ugm-3,2.39206,R,ugm-3,3.05761,R,ugm-3,75.58714,R,ugm-3
04-01-2016,13:00,0.28937,R,ugm-3,2.55988,R,ugm-3,3.00358,R,ugm-3,73.59144,R,ugm-3
04-01-2016,14:00,0.21703,R,ugm-3,1.96031,R,ugm-3,2.29309,R,ugm-3,74.19015,R,ugm-3
04-01-2016,15:00,0.39789,R,ugm-3,1.84652,R,ugm-3,2.45661,R,ugm-3,73.84090,R,ugm-3
04-01-2016,16:00,0.61492,R,ugm-3,1.73273,R,ugm-3,2.67559,R,ugm-3,72.14456,R,ugm-3
04-01-2016,17:00,0.39789,R,ugm-3,2.61152,R,ugm-3,3.22161,R,ugm-3,71.34628,R,ugm-3
04-01-2016,18:00,0.25320,R,ugm-3,2.17786,R,ugm-3,2.56610,R,ugm-3,70.49810,R,ugm-3
04-01-2016,19:00,0.39789,R,ugm-3,1.68300,R,ugm-3,2.29309,R,ugm-3,70.74757,R,ugm-3
04-01-2016,20:00,0.47023,R,ugm-3,1.35405,R,ugm-3,2.07506,R,ugm-3,69.20090,R,ugm-3
04-01-2016,21:00,0.57875,R,ugm-3,0.96916,R,ugm-3,1.85656,R,ugm-3,69.05122,R,ugm-3
04-01-2016,22:00,0.36172,R,ugm-3,1.02893,R,ugm-3,1.58355,R,ugm-3,71.64563,R,ugm-3
04-01-2016,23:00,0.43406,R,ugm-3,0.97251,R,ugm-3,1.63806,R,ugm-3,71.79531,R,ugm-3
04-01-2016,24:00,0.54258,R,ugm-3,0.91561,R,ugm-3,1.74755,R,ugm-3,68.70197,R,ugm-3
05-01-2016,01:00,0.38583,R,ugm-3,1.00980,R,ugm-3,1.60140,R,ugm-3,60.86885,R,ugm-3
05-01-2016,02:00,0.57875,R,ugm-3,1.22400,R,ugm-3,2.11140,R,ugm-3,59.93752,R,ugm-3
05-01-2016,03:00,0.32555,R,ugm-3,1.63041,R,ugm-3,2.12957,R,ugm-3,65.45896,R,ugm-3
05-01-2016,04:00,0.28937,R,ugm-3,1.30385,R,ugm-3,1.74755,R,ugm-3,70.24864,R,ugm-3
05-01-2016,05:00,0.47023,R,ugm-3,1.08104,R,ugm-3,1.80205,R,ugm-3,71.04692,R,ugm-3
05-01-2016,06:00,0.43406,R,ugm-3,1.13698,R,ugm-3,1.80253,R,ugm-3,70.84735,R,ugm-3
05-01-2016,07:00,0.47023,R,ugm-3,1.02701,R,ugm-3,1.74803,R,ugm-3,70.04907,R,ugm-3
05-01-2016,08:00,0.54258,R,ugm-3,1.18862,R,ugm-3,2.02056,R,ugm-3,66.35703,R,ugm-3
05-01-2016,09:00,0.90429,R,ugm-3,5.60267,R,ugm-3,6.98923,R,ugm-3,65.05982,R,ugm-3
05-01-2016,10:00,1.22984,R,ugm-3,9.25268,R,ugm-3,11.13840,R,ugm-3,47.04863,R,ugm-3
05-01-2016,11:00,1.80859,R,ugm-3,8.63828,R,ugm-3,11.41141,R,ugm-3,43.05723,R,ugm-3
05-01-2016,12:00,0.47023,R,ugm-3,3.64762,R,ugm-3,4.36863,R,ugm-3,62.61509,R,ugm-3
05-01-2016,13:00,0.28937,R,ugm-3,3.70643,R,ugm-3,4.15013,R,ugm-3,66.85595,R,ugm-3
05-01-2016,14:00,0.25320,R,ugm-3,5.01744,R,ugm-3,5.40568,R,ugm-3,65.55875,R,ugm-3
05-01-2016,15:00,0.36172,R,ugm-3,4.52354,R,ugm-3,5.07817,R,ugm-3,58.17466,R,ugm-3
05-01-2016,16:00,0.39789,R,ugm-3,3.59454,R,ugm-3,4.20463,R,ugm-3,56.32863,R,ugm-3
05-01-2016,17:00,0.36172,R,ugm-3,2.12048,R,ugm-3,2.67511,R,ugm-3,54.38283,R,ugm-3
05-01-2016,18:00,0.25320,R,ugm-3,2.88835,R,ugm-3,3.27659,R,ugm-3,55.87960,R,ugm-3
05-01-2016,19:00,0.43406,R,ugm-3,2.99258,R,ugm-3,3.65813,R,ugm-3,46.74927,R,ugm-3
05-01-2016,20:00,0.43406,R,ugm-3,2.66507,R,ugm-3,3.33062,R,ugm-3,48.14626,R,ugm-3
05-01-2016,21:00,0.39789,R,ugm-3,2.39349,R,ugm-3,3.00358,R,ugm-3,52.48691,R,ugm-3
05-01-2016,22:00,0.28937,R,ugm-3,3.21491,R,ugm-3,3.65861,R,ugm-3,48.74497,R,ugm-3
05-01-2016,23:00,0.28937,R,ugm-3,2.39493,R,ugm-3,2.83863,R,ugm-3,53.38498,R,ugm-3
05-01-2016,24:00,0.43406,R,ugm-3,2.01004,R,ugm-3,2.67559,R,ugm-3,55.43057,R,ugm-3
06-01-2016,01:00,0.38583,R,ugm-3,1.37445,R,ugm-3,1.96605,R,ugm-3,57.01050,R,ugm-3
06-01-2016,02:00,0.62698,R,ugm-3,1.36808,R,ugm-3,2.32943,R,ugm-3,59.87100,R,ugm-3
06-01-2016,03:00,0.47023,R,ugm-3,2.77313,R,ugm-3,3.49414,R,ugm-3,60.56950,R,ugm-3
06-01-2016,04:00,0.47023,R,ugm-3,2.93760,R,ugm-3,3.65861,R,ugm-3,60.02068,R,ugm-3
06-01-2016,05:00,0.54258,R,ugm-3,4.19124,R,ugm-3,5.02318,R,ugm-3,54.18326,R,ugm-3
06-01-2016,06:00,0.47023,R,ugm-3,3.81066,R,ugm-3,4.53167,R,ugm-3,52.33723,R,ugm-3
06-01-2016,07:00,0.50640,R,ugm-3,3.97322,R,ugm-3,4.74969,R,ugm-3,46.40003,R,ugm-3
06-01-2016,08:00,0.36172,R,ugm-3,3.86803,R,ugm-3,4.42266,R,ugm-3,41.01164,R,ugm-3
06-01-2016,09:00,0.65109,R,ugm-3,4.02486,R,ugm-3,5.02318,R,ugm-3,40.66239,R,ugm-3
06-01-2016,10:00,0.61523,R,ugm-3,4.24384,R,ugm-3,5.18718,R,ugm-3,35.82282,R,ugm-3
06-01-2016,11:00,0.72375,R,ugm-3,4.67798,R,ugm-3,5.78770,R,ugm-3,41.16131,R,ugm-3
06-01-2016,12:00,0.61523,R,ugm-3,5.22638,R,ugm-3,6.16973,R,ugm-3,41.76002,R,ugm-3
06-01-2016,13:00,0.32555,R,ugm-3,5.17905,R,ugm-3,5.67821,R,ugm-3,43.25680,R,ugm-3
06-01-2016,14:00,0.28937,R,ugm-3,5.12550,R,ugm-3,5.56920,R,ugm-3,45.75142,R,ugm-3
06-01-2016,15:00,0.21703,R,ugm-3,6.76547,R,ugm-3,7.09824,R,ugm-3,42.30884,R,ugm-3
06-01-2016,16:00,0.36172,R,ugm-3,8.83671,R,ugm-3,9.39133,R,ugm-3,42.75787,R,ugm-3
06-01-2016,17:00,0.50640,R,ugm-3,15.11305,R,ugm-3,15.88953,R,ugm-3,41.01164,R,ugm-3
06-01-2016,18:00,0.43406,R,ugm-3,8.94476,R,ugm-3,9.61031,R,ugm-3,42.00949,R,ugm-3
06-01-2016,19:00,0.32555,R,ugm-3,7.03609,R,ugm-3,7.53525,R,ugm-3,52.78627,R,ugm-3
06-01-2016,20:00,0.21703,R,ugm-3,2.83433,R,ugm-3,3.16710,R,ugm-3,66.80606,R,ugm-3
06-01-2016,21:00,0.14469,R,ugm-3,2.01673,R,ugm-3,2.23858,R,ugm-3,73.99058,R,ugm-3
06-01-2016,22:00,0.39789,R,ugm-3,1.24695,R,ugm-3,1.85704,R,ugm-3,77.88219,R,ugm-3
06-01-2016,23:00,0.43406,R,ugm-3,1.73655,R,ugm-3,2.40210,R,ugm-3,79.27918,R,ugm-3
06-01-2016,24:00,0.32555,R,ugm-3,1.41238,R,ugm-3,1.91154,R,ugm-3,77.43316,R,ugm-3
07-01-2016,01:00,0.43406,R,ugm-3,1.15515,R,ugm-3,1.82070,R,ugm-3,77.23359,R,ugm-3
07-01-2016,02:00,0.53052,R,ugm-3,2.89935,R,ugm-3,3.71280,R,ugm-3,72.84305,R,ugm-3
07-01-2016,03:00,0.39789,R,ugm-3,2.28353,R,ugm-3,2.89361,R,ugm-3,63.91229,R,ugm-3
07-01-2016,04:00,0.25320,R,ugm-3,1.30385,R,ugm-3,1.69208,R,ugm-3,58.27444,R,ugm-3
07-01-2016,05:00,0.18086,R,ugm-3,0.92374,R,ugm-3,1.20105,R,ugm-3,71.44606,R,ugm-3
07-01-2016,06:00,0.32555,R,ugm-3,0.97490,R,ugm-3,1.47406,R,ugm-3,76.28563,R,ugm-3
07-01-2016,07:00,0.28937,R,ugm-3,0.92087,R,ugm-3,1.36457,R,ugm-3,81.72392,R,ugm-3
07-01-2016,08:00,0.32555,R,ugm-3,1.02940,R,ugm-3,1.52857,R,ugm-3,81.87359,R,ugm-3
07-01-2016,09:00,0.28937,R,ugm-3,1.02988,R,ugm-3,1.47358,R,ugm-3,80.02757,R,ugm-3
07-01-2016,10:00,0.39789,R,ugm-3,1.51948,R,ugm-3,2.12957,R,ugm-3,77.53295,R,ugm-3
07-01-2016,11:00,0.47023,R,ugm-3,1.62658,R,ugm-3,2.34759,R,ugm-3,73.64133,R,ugm-3
07-01-2016,12:00,0.39789,R,ugm-3,1.84652,R,ugm-3,2.45661,R,ugm-3,73.14241,R,ugm-3
07-01-2016,13:00,0.18086,R,ugm-3,1.74324,R,ugm-3,2.02056,R,ugm-3,72.64348,R,ugm-3
07-01-2016,14:00,0.57875,R,ugm-3,1.67870,R,ugm-3,2.56610,R,ugm-3,73.64133,R,ugm-3
07-01-2016,15:00,0.36172,R,ugm-3,1.35692,R,ugm-3,1.91154,R,ugm-3,74.28993,R,ugm-3
07-01-2016,16:00,0.43406,R,ugm-3,1.24599,R,ugm-3,1.91154,R,ugm-3,73.89079,R,ugm-3
07-01-2016,17:00,0.54258,R,ugm-3,0.91561,R,ugm-3,1.74755,R,ugm-3,72.44391,R,ugm-3
07-01-2016,18:00,0.25320,R,ugm-3,0.53980,R,ugm-3,0.92804,R,ugm-3,73.19230,R,ugm-3
07-01-2016,19:00,0.50640,R,ugm-3,0.64260,R,ugm-3,1.41908,R,ugm-3,70.89724,R,ugm-3
07-01-2016,20:00,0.54258,R,ugm-3,0.91561,R,ugm-3,1.74755,R,ugm-3,63.86240,R,ugm-3
07-01-2016,21:00,0.47023,R,ugm-3,1.35405,R,ugm-3,2.07506,R,ugm-3,61.51745,R,ugm-3
07-01-2016,22:00,0.36172,R,ugm-3,1.68443,R,ugm-3,2.23906,R,ugm-3,68.55230,R,ugm-3
07-01-2016,23:00,0.65109,R,ugm-3,1.95075,R,ugm-3,2.94908,R,ugm-3,69.00133,R,ugm-3
07-01-2016,24:00,0.65109,R,ugm-3,2.33229,R,ugm-3,3.33062,R,ugm-3,63.96219,R,ugm-3
08-01-2016,01:00,0.62698,R,ugm-3,1.65941,R,ugm-3,2.62076,R,ugm-3,57.94182,R,ugm-3
08-01-2016,02:00,0.57916,R,ugm-3,2.16941,R,ugm-3,3.05745,R,ugm-3,59.47186,R,ugm-3
08-01-2016,03:00,0.75992,R,ugm-3,2.71193,R,ugm-3,3.87712,R,ugm-3,58.77337,R,ugm-3
08-01-2016,04:00,0.50640,R,ugm-3,2.93664,R,ugm-3,3.71312,R,ugm-3,62.06627,R,ugm-3
08-01-2016,05:00,0.54258,R,ugm-3,2.11666,R,ugm-3,2.94860,R,ugm-3,52.88605,R,ugm-3
08-01-2016,06:00,0.54258,R,ugm-3,1.73464,R,ugm-3,2.56658,R,ugm-3,54.63229,R,ugm-3
08-01-2016,07:00,0.61492,R,ugm-3,1.56873,R,ugm-3,2.51159,R,ugm-3,52.08777,R,ugm-3
08-01-2016,08:00,0.75992,R,ugm-3,4.73200,R,ugm-3,5.89719,R,ugm-3,56.72777,R,ugm-3
08-01-2016,09:00,0.97726,R,ugm-3,10.29547,R,ugm-3,11.79391,R,ugm-3,52.83616,R,ugm-3
08-01-2016,10:00,1.73811,R,ugm-3,18.84864,R,ugm-3,21.51371,R,ugm-3,48.44562,R,ugm-3
08-01-2016,11:00,4.16380,R,ugm-3,19.87948,R,ugm-3,26.26388,R,ugm-3,46.54970,R,ugm-3
08-01-2016,12:00,2.64303,R,ugm-3,21.88378,R,ugm-3,25.93637,R,ugm-3,46.54970,R,ugm-3
08-01-2016,13:00,2.38920,R,ugm-3,14.24621,R,ugm-3,17.90961,R,ugm-3,51.18971,R,ugm-3
08-01-2016,14:00,0.54258,R,ugm-3,3.59072,R,ugm-3,4.42266,R,ugm-3,73.29208,R,ugm-3
08-01-2016,15:00,0.47023,R,ugm-3,3.26512,R,ugm-3,3.98613,R,ugm-3,75.18800,R,ugm-3
08-01-2016,16:00,0.39789,R,ugm-3,3.10303,R,ugm-3,3.71312,R,ugm-3,73.19230,R,ugm-3
08-01-2016,17:00,0.25320,R,ugm-3,3.43437,R,ugm-3,3.82261,R,ugm-3,69.60004,R,ugm-3
08-01-2016,18:00,0.39789,R,ugm-3,3.10303,R,ugm-3,3.71312,R,ugm-3,70.09896,R,ugm-3
08-01-2016,19:00,0.43406,R,ugm-3,4.03012,R,ugm-3,4.69567,R,ugm-3,63.66283,R,ugm-3
08-01-2016,20:00,0.54258,R,ugm-3,12.05401,R,ugm-3,12.88595,R,ugm-3,52.18756,R,ugm-3
08-01-2016,21:00,0.57875,R,ugm-3,13.74609,R,ugm-3,14.63349,R,ugm-3,54.83186,R,ugm-3
08-01-2016,22:00,0.50640,R,ugm-3,14.56703,R,ugm-3,15.34351,R,ugm-3,51.48906,R,ugm-3
08-01-2016,23:00,0.61492,R,ugm-3,13.90913,R,ugm-3,14.85200,R,ugm-3,49.14411,R,ugm-3
08-01-2016,24:00,0.32555,R,ugm-3,6.76308,R,ugm-3,7.26224,R,ugm-3,58.32433,R,ugm-3
09-01-2016,01:00,0.24115,R,ugm-3,1.15898,R,ugm-3,1.52873,R,ugm-3,74.57266,R,ugm-3
09-01-2016,02:00,0.33802,R,ugm-3,1.22846,R,ugm-3,1.74675,R,ugm-3,74.83875,R,ugm-3
09-01-2016,03:00,0.36265,R,ugm-3,1.30050,R,ugm-3,1.85656,R,ugm-3,76.38542,R,ugm-3
09-01-2016,04:00,0.43500,R,ugm-3,1.40808,R,ugm-3,2.07506,R,ugm-3,75.68692,R,ugm-3
09-01-2016,05:00,0.43500,R,ugm-3,1.73512,R,ugm-3,2.40210,R,ugm-3,74.48950,R,ugm-3
09-01-2016,06:00,0.25351,R,ugm-3,1.79536,R,ugm-3,2.18408,R,ugm-3,76.38542,R,ugm-3
09-01-2016,07:00,0.36234,R,ugm-3,1.79201,R,ugm-3,2.34759,R,ugm-3,77.83230,R,ugm-3
09-01-2016,08:00,0.28969,R,ugm-3,1.46737,R,ugm-3,1.91154,R,ugm-3,80.47660,R,ugm-3
09-01-2016,09:00,0.32586,R,ugm-3,1.52092,R,ugm-3,2.02056,R,ugm-3,80.67617,R,ugm-3
09-01-2016,10:00,0.43500,R,ugm-3,2.11762,R,ugm-3,2.78460,R,ugm-3,78.33123,R,ugm-3
09-01-2016,11:00,0.47117,R,ugm-3,3.42720,R,ugm-3,4.14965,R,ugm-3,76.83445,R,ugm-3
09-01-2016,12:00,0.21734,R,ugm-3,3.48888,R,ugm-3,3.82213,R,ugm-3,73.39187,R,ugm-3
09-01-2016,13:00,0.28969,R,ugm-3,2.94143,R,ugm-3,3.38560,R,ugm-3,73.39187,R,ugm-3
09-01-2016,14:00,0.21703,R,ugm-3,2.88883,R,ugm-3,3.22161,R,ugm-3,74.63918,R,ugm-3
09-01-2016,15:00,0.36234,R,ugm-3,1.95601,R,ugm-3,2.51159,R,ugm-3,78.97983,R,ugm-3
09-01-2016,16:00,0.28979,R,ugm-3,2.54108,R,ugm-3,2.98541,R,ugm-3,78.63058,R,ugm-3
09-01-2016,17:00,0.39851,R,ugm-3,1.90055,R,ugm-3,2.51159,R,ugm-3,81.12521,R,ugm-3
09-01-2016,18:00,0.39882,R,ugm-3,1.24504,R,ugm-3,1.85656,R,ugm-3,79.87789,R,ugm-3
09-01-2016,19:00,0.43468,R,ugm-3,1.57255,R,ugm-3,2.23906,R,ugm-3,80.17725,R,ugm-3
09-01-2016,20:00,0.43500,R,ugm-3,1.51709,R,ugm-3,2.18408,R,ugm-3,81.57424,R,ugm-3
09-01-2016,21:00,0.39882,R,ugm-3,0.80803,R,ugm-3,1.41955,R,ugm-3,79.72822,R,ugm-3
09-01-2016,22:00,0.50765,R,ugm-3,0.64069,R,ugm-3,1.41908,R,ugm-3,79.42886,R,ugm-3
09-01-2016,23:00,0.54382,R,ugm-3,0.74922,R,ugm-3,1.58307,R,ugm-3,77.38327,R,ugm-3
09-01-2016,24:00,0.43468,R,ugm-3,0.69854,R,ugm-3,1.36505,R,ugm-3,78.63058,R,ugm-3
10-01-2016,01:00,0.62822,R,ugm-3,0.42139,R,ugm-3,1.38465,R,ugm-3,76.90097,R,ugm-3
10-01-2016,02:00,0.72468,R,ugm-3,0.85616,R,ugm-3,1.96733,R,ugm-3,75.90312,R,ugm-3
10-01-2016,03:00,0.61617,R,ugm-3,1.45972,R,ugm-3,2.40449,R,ugm-3,74.24004,R,ugm-3
10-01-2016,04:00,0.58000,R,ugm-3,1.18766,R,ugm-3,2.07698,R,ugm-3,73.49165,R,ugm-3
10-01-2016,05:00,0.58000,R,ugm-3,1.07817,R,ugm-3,1.96748,R,ugm-3,73.99058,R,ugm-3
10-01-2016,06:00,0.50765,R,ugm-3,0.86110,R,ugm-3,1.63949,R,ugm-3,75.03832,R,ugm-3
10-01-2016,07:00,0.43500,R,ugm-3,0.86302,R,ugm-3,1.53000,R,ugm-3,75.78671,R,ugm-3
10-01-2016,08:00,0.50734,R,ugm-3,0.80708,R,ugm-3,1.58498,R,ugm-3,76.73467,R,ugm-3
10-01-2016,09:00,0.54382,R,ugm-3,0.75066,R,ugm-3,1.58451,R,ugm-3,79.42886,R,ugm-3
10-01-2016,10:00,0.54382,R,ugm-3,1.02414,R,ugm-3,1.85799,R,ugm-3,79.67832,R,ugm-3
10-01-2016,11:00,0.68851,R,ugm-3,1.56777,R,ugm-3,2.62347,R,ugm-3,79.12951,R,ugm-3
10-01-2016,12:00,0.36203,R,ugm-3,2.12288,R,ugm-3,2.67798,R,ugm-3,78.97983,R,ugm-3
10-01-2016,13:00,0.39851,R,ugm-3,2.39445,R,ugm-3,3.00549,R,ugm-3,76.98413,R,ugm-3
10-01-2016,14:00,0.28969,R,ugm-3,2.23380,R,ugm-3,2.67798,R,ugm-3,75.83660,R,ugm-3
10-01-2016,15:00,0.39882,R,ugm-3,2.28496,R,ugm-3,2.89648,R,ugm-3,73.04262,R,ugm-3
10-01-2016,16:00,0.50765,R,ugm-3,2.06359,R,ugm-3,2.84198,R,ugm-3,72.09466,R,ugm-3
10-01-2016,17:00,0.25320,R,ugm-3,1.63423,R,ugm-3,2.02247,R,ugm-3,73.54155,R,ugm-3
10-01-2016,18:00,0.47117,R,ugm-3,1.46354,R,ugm-3,2.18599,R,ugm-3,74.04047,R,ugm-3
10-01-2016,19:00,0.43500,R,ugm-3,1.13603,R,ugm-3,1.80301,R,ugm-3,73.24219,R,ugm-3
10-01-2016,20:00,0.65234,R,ugm-3,3.80922,R,ugm-3,4.80946,R,ugm-3,66.00778,R,ugm-3
10-01-2016,21:00,0.39851,R,ugm-3,5.23643,R,ugm-3,5.84747,R,ugm-3,58.57380,R,ugm-3
10-01-2016,22:00,0.58000,R,ugm-3,9.98612,R,ugm-3,10.87543,R,ugm-3,56.37853,R,ugm-3
10-01-2016,23:00,0.54382,R,ugm-3,9.60458,R,ugm-3,10.43843,R,ugm-3,54.13336,R,ugm-3
10-01-2016,24:00,0.47117,R,ugm-3,6.98302,R,ugm-3,7.70546,R,ugm-3,60.17036,R,ugm-3
11-01-2016,01:00,0.38666,R,ugm-3,3.63375,R,ugm-3,4.22663,R,ugm-3,62.06627,R,ugm-3
11-01-2016,02:00,0.62864,R,ugm-3,2.60610,R,ugm-3,3.57000,R,ugm-3,56.27874,R,ugm-3
11-01-2016,03:00,0.39914,R,ugm-3,1.62849,R,ugm-3,2.24049,R,ugm-3,61.71702,R,ugm-3
11-01-2016,04:00,0.39914,R,ugm-3,1.30050,R,ugm-3,1.91250,R,ugm-3,58.27444,R,ugm-3
11-01-2016,05:00,0.36296,R,ugm-3,1.41095,R,ugm-3,1.96748,R,ugm-3,59.67143,R,ugm-3
11-01-2016,06:00,0.29031,R,ugm-3,1.68635,R,ugm-3,2.13148,R,ugm-3,58.87315,R,ugm-3
11-01-2016,07:00,0.25383,R,ugm-3,2.01530,R,ugm-3,2.40449,R,ugm-3,60.51960,R,ugm-3
11-01-2016,08:00,0.54414,R,ugm-3,1.35118,R,ugm-3,2.18551,R,ugm-3,66.85595,R,ugm-3
11-01-2016,09:00,0.25383,R,ugm-3,1.46880,R,ugm-3,1.85799,R,ugm-3,71.84520,R,ugm-3
11-01-2016,10:00,0.39882,R,ugm-3,1.95697,R,ugm-3,2.56849,R,ugm-3,71.09681,R,ugm-3
11-01-2016,11:00,0.29031,R,ugm-3,1.63136,R,ugm-3,2.07650,R,ugm-3,73.19230,R,ugm-3
11-01-2016,12:00,0.29031,R,ugm-3,2.17738,R,ugm-3,2.62252,R,ugm-3,74.33983,R,ugm-3
11-01-2016,13:00,0.21765,R,ugm-3,2.78078,R,ugm-3,3.11451,R,ugm-3,74.04047,R,ugm-3
11-01-2016,14:00,0.18117,R,ugm-3,3.16471,R,ugm-3,3.44250,R,ugm-3,72.14456,R,ugm-3
11-01-2016,15:00,0.25383,R,ugm-3,2.99880,R,ugm-3,3.38799,R,ugm-3,65.45896,R,ugm-3
11-01-2016,16:00,0.32648,R,ugm-3,3.54338,R,ugm-3,4.04398,R,ugm-3,63.61294,R,ugm-3
11-01-2016,17:00,0.39882,R,ugm-3,2.23045,R,ugm-3,2.84198,R,ugm-3,63.06412,R,ugm-3
11-01-2016,18:00,0.25383,R,ugm-3,1.52331,R,ugm-3,1.91250,R,ugm-3,57.12691,R,ugm-3
11-01-2016,19:00,0.39882,R,ugm-3,1.79297,R,ugm-3,2.40449,R,ugm-3,57.42627,R,ugm-3
11-01-2016,20:00,0.38708,R,ugm-3,1.95713,R,ugm-3,2.55064,R,ugm-3,56.52820,R,ugm-3
11-01-2016,21:00,0.54414,R,ugm-3,1.24169,R,ugm-3,2.07602,R,ugm-3,59.77122,R,ugm-3
11-01-2016,22:00,0.54382,R,ugm-3,1.18766,R,ugm-3,2.02151,R,ugm-3,61.41767,R,ugm-3
11-01-2016,23:00,0.36296,R,ugm-3,1.52044,R,ugm-3,2.07698,R,ugm-3,58.07487,R,ugm-3
11-01-2016,24:00,0.36265,R,ugm-3,1.52092,R,ugm-3,2.07698,R,ugm-3,58.52390,R,ugm-3
12-01-2016,01:00,0.38708,R,ugm-3,1.08248,R,ugm-3,1.67599,R,ugm-3,58.67358,R,ugm-3
12-01-2016,02:00,0.48354,R,ugm-3,1.37190,R,ugm-3,2.11331,R,ugm-3,56.61136,R,ugm-3
12-01-2016,03:00,0.43531,R,ugm-3,1.57303,R,ugm-3,2.24049,R,ugm-3,59.07272,R,ugm-3
12-01-2016,04:00,0.36265,R,ugm-3,1.30193,R,ugm-3,1.85799,R,ugm-3,64.31143,R,ugm-3
12-01-2016,05:00,0.47179,R,ugm-3,1.18958,R,ugm-3,1.91298,R,ugm-3,66.70627,R,ugm-3
12-01-2016,06:00,0.47148,R,ugm-3,1.08056,R,ugm-3,1.80349,R,ugm-3,73.19230,R,ugm-3
12-01-2016,07:00,0.47148,R,ugm-3,0.97059,R,ugm-3,1.69352,R,ugm-3,76.03617,R,ugm-3
12-01-2016,08:00,0.54414,R,ugm-3,0.91418,R,ugm-3,1.74850,R,ugm-3,76.73467,R,ugm-3
12-01-2016,09:00,0.58031,R,ugm-3,1.29572,R,ugm-3,2.18551,R,ugm-3,76.08606,R,ugm-3
12-01-2016,10:00,0.58031,R,ugm-3,1.40521,R,ugm-3,2.29500,R,ugm-3,74.43961,R,ugm-3
12-01-2016,11:00,0.43531,R,ugm-3,1.73703,R,ugm-3,2.40449,R,ugm-3,73.19230,R,ugm-3
12-01-2016,12:00,0.29031,R,ugm-3,1.79584,R,ugm-3,2.24097,R,ugm-3,72.84305,R,ugm-3
12-01-2016,13:00,0.39914,R,ugm-3,1.84748,R,ugm-3,2.45948,R,ugm-3,72.59359,R,ugm-3
12-01-2016,14:00,0.39914,R,ugm-3,1.95649,R,ugm-3,2.56849,R,ugm-3,72.49380,R,ugm-3
12-01-2016,15:00,0.39914,R,ugm-3,2.01147,R,ugm-3,2.62347,R,ugm-3,71.84520,R,ugm-3
12-01-2016,16:00,0.47148,R,ugm-3,1.79153,R,ugm-3,2.51446,R,ugm-3,71.79531,R,ugm-3
12-01-2016,17:00,0.43531,R,ugm-3,1.30002,R,ugm-3,1.96748,R,ugm-3,72.94284,R,ugm-3
12-01-2016,18:00,0.32679,R,ugm-3,1.41143,R,ugm-3,1.91250,R,ugm-3,72.29423,R,ugm-3
12-01-2016,19:00,0.50796,R,ugm-3,0.91465,R,ugm-3,1.69352,R,ugm-3,73.74112,R,ugm-3
12-01-2016,20:00,0.36296,R,ugm-3,0.86445,R,ugm-3,1.42099,R,ugm-3,73.54155,R,ugm-3
12-01-2016,21:00,0.47148,R,ugm-3,0.69806,R,ugm-3,1.42099,R,ugm-3,73.24219,R,ugm-3
12-01-2016,22:00,0.32679,R,ugm-3,0.64738,R,ugm-3,1.14846,R,ugm-3,74.28993,R,ugm-3
12-01-2016,23:00,0.47179,R,ugm-3,0.58809,R,ugm-3,1.31150,R,ugm-3,73.24219,R,ugm-3
12-01-2016,24:00,0.47148,R,ugm-3,0.53454,R,ugm-3,1.25747,R,ugm-3,73.04262,R,ugm-3